Weather History for Hallock, MN

Change the Weather History Date:

Wednesday, January 15, 2014

  Actual Average Record
Temperature  
Mean Temperature 14 °F -  
Max Temperature 41 °F 7 °F 41 °F (2014)
Min Temperature -14 °F -9 °F -38 °F (1972)
Degree Days  
Heating Degree Days 52    
Moisture  
Dew Point 5 °F    
Average Humidity 77    
Maximum Humidity 93    
Minimum Humidity 57    
Precipitation  
Precipitation 0.00 in - - ()
Sea Level Pressure  
Sea Level Pressure 29.58 in    
Wind  
Wind Speed 14 mph (SSW)    
Max Wind Speed 44 mph    
Max Gust Speed 56 mph    
Visibility 8 miles    
Events Snow    
Averages and records for this station are not official NWS values.
T = Trace of Precipitation, MM = Missing Value Source: NWS Daily Summary

Daily Weather History Graph

Daily Weather History Graph

Search for Another Location

Airport:

Trip Planner

Search our weather history database for the weather conditions in past years. The results will help you decide how hot, cold, wet, or windy it might be!

Date:

Astronomy

Jan. 15, 2014 Rise Set
Actual Time 8:15 AM CST 4:59 PM CST
Civil Twilight 7:39 AM CST 5:35 PM CST
Nautical Twilight 7:00 AM CST 6:14 PM CST
Astronomical Twilight 6:22 AM CST 6:52 PM CST
Moon 5:03 PM CST (1/15) 7:27 AM CST (1/15)
Length of Visible Light 9h 55m
Length of Day
8h 44m
Full, 100% of the Moon is Illuminated
Jan 15
Full
Jan 15
Full
Jan 23
Last Quarter
Jan 30
New
Feb 6
First Quarter

Hourly Weather History & Observations

Time (CST) Temp. Windchill Dew Point Humidity Pressure Visibility Wind Dir Wind Speed Gust Speed Precip Events Conditions
12:13 AM -5.8 °F -18.4 °F -9.4 °F 84% 30.17 in 10.0 mi WNW 5.8 mph - N/A   Clear
12:34 AM -5.8 °F -18.4 °F -11.2 °F 77% 30.17 in 10.0 mi NW 5.8 mph - N/A   Clear
12:53 AM -5.8 °F -19.9 °F -11.2 °F 77% 30.16 in 10.0 mi NW 6.9 mph - N/A   Clear
1:13 AM -5.8 °F -18.4 °F -11.2 °F 77% 30.15 in 10.0 mi NW 5.8 mph - N/A   Clear
1:34 AM -7.6 °F -16.5 °F -11.2 °F 84% 30.13 in 10.0 mi NW 3.5 mph - N/A   Clear
1:53 AM -9.4 °F - -13.0 °F 84% 30.13 in 10.0 mi Calm Calm - N/A   Clear
2:13 AM -7.6 °F -18.8 °F -11.2 °F 84% 30.12 in 10.0 mi WNW 4.6 mph - N/A   Clear
2:33 AM -7.6 °F - -13.0 °F 77% 30.11 in 10.0 mi Calm Calm - N/A   Clear
2:53 AM -9.4 °F - -14.8 °F 77% 30.10 in 10.0 mi Calm Calm - N/A   Clear
3:14 AM -14.8 °F - -20.2 °F 77% 30.10 in 10.0 mi Calm Calm - N/A   Clear
3:33 AM -14.8 °F -27.2 °F -18.4 °F 84% 30.09 in 10.0 mi South 4.6 mph - N/A   Clear
3:53 AM -14.8 °F -29.1 °F -20.2 °F 77% 30.08 in 10.0 mi South 5.8 mph - N/A   Clear
4:13 AM -14.8 °F -27.2 °F -18.4 °F 84% 30.06 in 10.0 mi South 4.6 mph - N/A   Clear
4:34 AM -14.8 °F -30.8 °F -20.2 °F 77% 30.06 in 10.0 mi South 6.9 mph - N/A   Clear
4:53 AM -14.8 °F -33.5 °F -20.2 °F 77% 30.03 in 10.0 mi SSE 9.2 mph - N/A   Clear
5:13 AM -14.8 °F -34.6 °F -20.2 °F 77% 30.01 in 10.0 mi SSE 10.4 mph - N/A   Clear
5:34 AM -13.0 °F -30.0 °F -18.4 °F 77% 30.01 in 10.0 mi SSE 8.1 mph - N/A   Clear
5:53 AM -11.2 °F -24.8 °F -18.4 °F 70% 30.00 in 10.0 mi SSE 5.8 mph - N/A   Clear
6:13 AM -9.4 °F -25.6 °F -14.8 °F 77% 29.99 in 10.0 mi South 8.1 mph - N/A   Clear
6:33 AM -7.6 °F -25.7 °F -13.0 °F 77% 29.96 in 10.0 mi South 10.4 mph - N/A   Scattered Clouds
6:53 AM -5.8 °F -23.4 °F -11.2 °F 77% 29.94 in 10.0 mi South 10.4 mph - N/A   Mostly Cloudy
7:13 AM -4.0 °F -22.1 °F -9.4 °F 78% 29.92 in 10.0 mi SSE 11.5 mph - N/A   Scattered Clouds
7:33 AM -4.0 °F -24.5 °F -9.4 °F 78% 29.89 in 10.0 mi SSE 15.0 mph - N/A   Clear
7:53 AM -2.2 °F -23.5 °F -7.6 °F 78% 29.85 in 10.0 mi SSE 17.3 mph - N/A   Mostly Cloudy
8:13 AM -2.2 °F -22.9 °F -7.6 °F 78% 29.83 in 10.0 mi SSE 16.1 mph - N/A   Mostly Cloudy
8:34 AM -0.4 °F -22.3 °F -5.8 °F 78% 29.81 in 5.0 mi SSE 19.6 mph - N/A   Haze
8:53 AM -0.4 °F -22.8 °F -4.0 °F 85% 29.77 in 4.0 mi SSE 20.7 mph - N/A   Scattered Clouds
9:13 AM 3.2 °F -19.9 °F -0.4 °F 85% 29.75 in 1.5 mi South 25.3 mph 29.9 mph N/A   Mostly Cloudy
9:34 AM 3.2 °F -20.7 °F -0.4 °F 85% 29.74 in 1.0 mi South 27.6 mph 32.2 mph N/A   Overcast
9:53 AM 3.2 °F -20.7 °F -0.4 °F 85% 29.71 in 1.0 mi South 27.6 mph - N/A   Overcast
10:14 AM 5.0 °F -18.7 °F -0.4 °F 78% 29.69 in 0.8 mi South 28.8 mph 32.2 mph N/A   Haze
10:33 AM 5.0 °F -18.3 °F -0.4 °F 78% 29.67 in 0.5 mi South 27.6 mph - N/A Snow Light Snow
10:53 AM 5.0 °F -19.7 °F -0.4 °F 78% 29.59 in 0.2 mi South 32.2 mph 38.0 mph N/A Snow Snow
11:13 AM 5.0 °F -19.7 °F 1.4 °F 85% 29.58 in 0.2 mi South 32.2 mph 36.8 mph N/A Snow Snow
11:33 AM 6.8 °F -16.9 °F 1.4 °F 79% 29.53 in 0.2 mi South 31.1 mph - N/A Snow Heavy Snow
11:53 AM 6.8 °F -17.3 °F 1.4 °F 79% 29.49 in 0.2 mi South 32.2 mph 40.3 mph N/A Snow Heavy Snow
12:13 PM 6.8 °F -17.3 °F 3.2 °F 85% 29.43 in 0.2 mi South 32.2 mph 36.8 mph N/A Snow Heavy Snow
12:33 PM 8.6 °F -14.5 °F 3.2 °F 79% 29.44 in 0.2 mi South 31.1 mph 41.4 mph N/A Snow Heavy Snow
12:53 PM 8.6 °F -15.1 °F 5.0 °F 85% 29.40 in - South 33.4 mph - N/A   Unknown
1:14 PM - - - N/A% 29.36 in - South 33.4 mph 39.1 mph N/A   Unknown
1:33 PM 10.4 °F -11.4 °F 6.8 °F 85% 29.34 in - South 28.8 mph 36.8 mph N/A   Overcast
1:53 PM 12.2 °F -10.5 °F 8.6 °F 85% 29.31 in - South 34.5 mph - N/A   Overcast
2:14 PM 12.2 °F -9.6 °F 8.6 °F 85% 29.28 in - South 31.1 mph 36.8 mph N/A   Overcast
2:33 PM 14.0 °F -7.7 °F 10.4 °F 86% 29.26 in - South 33.4 mph 39.1 mph N/A   Overcast
2:53 PM 15.8 °F -3.7 °F 10.4 °F 79% 29.24 in - South 27.6 mph - N/A   Overcast
3:14 PM 15.8 °F -2.7 °F 12.2 °F 86% 29.24 in - South 24.2 mph - N/A   Overcast
3:34 PM 17.6 °F -0.3 °F 15.8 °F 93% 29.23 in - South 24.2 mph - N/A   Unknown
3:53 PM 19.4 °F 2.8 °F 15.8 °F 86% 29.22 in 1.8 mi South 21.9 mph - N/A   Overcast
4:13 PM 19.4 °F 4.1 °F 17.6 °F 93% 29.22 in 7.0 mi SSE 18.4 mph - N/A   Mostly Cloudy
4:33 PM 19.4 °F 4.1 °F 17.6 °F 93% 29.20 in 10.0 mi SSE 18.4 mph - N/A   Mostly Cloudy
4:54 PM 23.0 °F 9.6 °F 19.4 °F 86% 29.19 in 10.0 mi South 16.1 mph - N/A   Overcast
5:13 PM 23.0 °F 12.4 °F 19.4 °F 86% 29.18 in 10.0 mi South 10.4 mph - N/A   Mostly Cloudy
5:33 PM 33.8 °F 24.8 °F 24.8 °F 70% 29.17 in 10.0 mi WNW 12.7 mph 19.6 mph N/A   Scattered Clouds
5:53 PM 41.0 °F 30.0 °F 26.6 °F 57% 29.16 in 10.0 mi WNW 28.8 mph 34.5 mph N/A   Overcast
6:13 PM 41.0 °F 30.0 °F 26.6 °F 57% 29.16 in 10.0 mi WNW 28.8 mph 32.2 mph N/A   Overcast
6:33 PM 41.0 °F 30.0 °F 26.6 °F 57% 29.17 in 10.0 mi WNW 28.8 mph 34.5 mph N/A   Overcast
6:53 PM 39.2 °F 28.3 °F 26.6 °F 61% 29.17 in 10.0 mi WNW 25.3 mph 34.5 mph N/A   Overcast
7:13 PM 39.2 °F 28.3 °F 26.6 °F 61% 29.18 in 10.0 mi WNW 25.3 mph 32.2 mph N/A   Overcast
7:33 PM 39.2 °F 28.0 °F 26.6 °F 61% 29.18 in 10.0 mi WNW 26.5 mph 31.1 mph N/A   Overcast
7:53 PM 39.2 °F 28.3 °F 28.4 °F 65% 29.18 in 10.0 mi WNW 25.3 mph 29.9 mph N/A   Overcast
8:13 PM 39.2 °F 28.7 °F 28.4 °F 65% 29.17 in 10.0 mi WNW 23.0 mph - N/A   Overcast
8:34 PM 39.2 °F 29.0 °F 28.4 °F 65% 29.17 in 10.0 mi WNW 21.9 mph 31.1 mph N/A   Overcast
8:53 PM 37.4 °F 26.9 °F 28.4 °F 70% 29.17 in 10.0 mi WNW 20.7 mph 27.6 mph N/A   Overcast
9:13 PM 37.4 °F 26.9 °F 28.4 °F 70% 29.17 in 10.0 mi West 20.7 mph 26.5 mph N/A   Overcast
9:33 PM 37.4 °F 26.4 °F 28.4 °F 70% 29.17 in 10.0 mi WNW 23.0 mph 29.9 mph N/A   Overcast
9:53 PM 37.4 °F 26.6 °F 28.4 °F 70% 29.17 in 10.0 mi WNW 21.9 mph 28.8 mph N/A   Overcast
10:13 PM 37.4 °F 26.4 °F 28.4 °F 70% 29.18 in 10.0 mi WNW 23.0 mph 29.9 mph N/A   Overcast
10:33 PM 37.4 °F 26.6 °F 28.4 °F 70% 29.18 in 10.0 mi WNW 21.9 mph 28.8 mph N/A   Scattered Clouds
10:53 PM 35.6 °F 24.0 °F 28.4 °F 75% 29.19 in 10.0 mi WNW 23.0 mph 27.6 mph N/A   Scattered Clouds
11:13 PM 35.6 °F 24.5 °F 26.6 °F 70% 29.20 in 10.0 mi WNW 20.7 mph 26.5 mph N/A   Scattered Clouds
11:33 PM 35.6 °F 20.3 °F 28.4 °F 75% 29.22 in 2.0 mi NW 43.7 mph 56.4 mph N/A   Haze
11:53 PM 28.4 °F 11.6 °F 24.8 °F 86% 29.25 in 1.0 mi NNW 35.7 mph 43.7 mph N/A Snow Light Snow